Location: Unspecified
(43.1763°N, 179.4719°W)
Time: 09:27:53
(UTC-04:00)

Resurs 1-4 Rocket - Visible Passes

Search period start: 20 May 2019 00:00
Search period end: 30 May 2019 00:00
Orbit: 799 x 815 km, 98.6° (Epoch: 19 May)

Date Brightness Start Highest point End Pass type
(mag) Time Alt. Az. Time Alt. Az. Time Alt. Az.
20 May 3.7 08:46:21 10° NE 08:50:33 24° E 08:51:55 21° ESE visible
20 May 2.6 10:25:32 10° N 10:30:35 46° WNW 10:33:00 28° SW visible
21 May 4.3 08:22:57 10° ENE 08:25:41 14° E 08:27:04 13° ESE visible
21 May 2.1 10:00:46 10° N 10:06:04 76° WNW 10:08:09 38° SSW visible
21 May 4.2 11:43:24 10° NW 11:44:59 11° NW 11:46:35 10° WNW visible
22 May 2.3 09:36:12 10° NNE 09:41:29 66° ESE 09:43:19 40° S visible
22 May 3.8 11:17:16 10° NNW 11:20:45 18° WNW 11:24:15 10° WSW visible
23 May 3.0 09:11:50 10° NNE 09:16:48 40° E 09:18:28 31° SE visible
23 May 3.3 10:52:00 10° N 10:56:27 28° WNW 10:59:33 16° WSW visible
24 May 3.7 08:47:46 10° NE 08:52:02 24° E 08:53:37 21° ESE visible
24 May 2.6 10:27:01 10° N 10:32:02 45° WNW 10:34:42 25° SW visible
25 May 4.2 08:24:18 10° ENE 08:27:10 15° E 08:28:46 13° ESE visible
25 May 2.1 10:02:15 10° N 10:07:32 74° WNW 10:09:51 34° SSW visible
25 May 4.2 11:45:03 10° NW 11:46:26 11° NW 11:47:49 10° WNW visible
26 May 2.2 09:37:39 10° NNE 09:42:58 69° ESE 09:45:00 38° S visible
26 May 3.9 11:18:48 10° NNW 11:22:13 18° WNW 11:25:38 10° W visible
27 May 3.0 09:13:16 10° NNE 09:18:17 41° E 09:20:09 31° SE visible
27 May 3.3 10:53:30 10° N 10:57:54 27° WNW 11:01:14 15° WSW visible
28 May 3.6 08:49:11 10° NE 08:53:32 25° E 08:55:18 21° ESE visible
28 May 2.7 10:28:30 10° N 10:33:30 44° WNW 10:36:23 23° SW visible
29 May 4.2 08:25:40 10° NE 08:28:40 15° E 08:30:26 13° ESE visible
29 May 2.1 10:03:43 10° N 10:09:01 71° WNW 10:11:31 32° SSW visible
29 May 4.3 11:46:45 10° NW 11:47:53 11° NW 11:49:01 10° WNW visible
